Regional Weather Roundup
Issued by NWS

Home | Current Version | Previous Version | Graphics & Text | Print | Product List | Glossary On
Versions: 1 2 3 4 5 6 7 8 9 10 11 12 13 14 15 16 17 18 19 20 21 22 23 24 25 26 27 28 29 30 31 32 33 34 35 36 37 38 39 40 41 42 43 44 45 46 47 48 49 50
000
ASUS43 KOAX 301902
RWRNE

WEATHER ROUNDUP FOR NEBRASKA
NATIONAL WEATHER SERVICE OMAHA NE
200 PM CDT SAT JUL 30 2016

NOTES: SATELLITE DATA IS BEING USED TO AUGMENT CLOUD COVER ABOVE
       12000 FEET.
       "FAIR" INDICATES FEW OR NO CLOUDS BELOW 12,000 FEET WITH NO
       SIGNIFICANT WEATHER AND/OR OBSTRUCTIONS TO VISIBILITY.

  * THESE STATIONS DO NOT REPORT WEATHER SUCH AS RAIN...SNOW OR FOG.

NEZ001>004-019>022-054>056-302000-
NEBRASKA PANHANDLE

CITY           SKY/WX    TMP DP  RH WIND       PRES   REMARKS
SCOTTSBLUFF    SUNNY     84  66  54 E13       29.97F
ALLIANCE       SUNNY     82  61  48 SE9       29.98F
CHADRON        SUNNY     89  56  32 S12G26    29.90F
SIDNEY         SUNNY     84  57  39 E9G17     30.02F
$$

NEZ057>060-069>072-079>082-302000-
SOUTHWEST NEBRASKA

CITY           SKY/WX    TMP DP  RH WIND       PRES   REMARKS
NORTH PLATTE   SUNNY     78  69  73 E12       29.98F
IMPERIAL       SUNNY     84  60  44 SE8       29.97F
LEXINGTON      PTSUNNY   78  69  73 SE12      29.99S
MCCOOK         MOSUNNY   89  62  40 SE13      29.95F
OGALLALA       SUNNY     84  60  44 SE9       29.97F
$$

NEZ005>010-023>029-035>040-094-302000-
NORTH CENTRAL NEBRASKA

CITY           SKY/WX    TMP DP  RH WIND       PRES   REMARKS
VALENTINE      MOSUNNY   84  61  45 S7        29.94F
AINSWORTH      SUNNY     81  66  60 S10       29.96F
BROKEN BOW     SUNNY     78  66  66 SE14G20   29.98F
O`NEILL        MOSUNNY   80  65  59 SE12      29.98F
ORD            SUNNY     80  65  59 S9        29.96F
THEDFORD       SUNNY     82  67  60 S15       29.98F
$$

NEZ041-046>049-061>064-073>077-083>087-302000-
SOUTH CENTRAL NEBRASKA

CITY           SKY/WX    TMP DP  RH WIND       PRES   REMARKS
GRAND ISLAND   PTSUNNY   78  64  61 S6        29.99F
AURORA         SUNNY     77  68  73 SE6       30.00F
HASTINGS       MOSUNNY   80  68  66 S10       30.00F
HEBRON         SUNNY     77  64  63 CALM      30.00F
HOLDREGE       MOSUNNY   81  68  63 SE16      29.97F
KEARNEY *      MOSUNNY   81  70  69 SE12      29.99F
YORK           MOSUNNY   73  66  78 SE7       30.01F
$$

NEZ011>018-030>034-042>045-302000-
NORTHEAST NEBRASKA

CITY           SKY/WX    TMP DP  RH WIND       PRES   REMARKS
NORFOLK        PTSUNNY   77  62  59 SE14      30.00F
ALBION         PTSUNNY   74  64  70 SE10      30.01S
BLAIR          MOSUNNY   77  66  68 E8        30.01F
FREMONT        MOSUNNY   78  62  58 SE8       30.01F
TEKAMAH        MOSUNNY   79  63  57 SE10      30.00F
WAYNE          CLOUDY    76  65  68 S9        30.01F
$$

NEZ050>053-065>068-078-088>093-302000-
SOUTHEAST NEBRASKA

CITY           SKY/WX    TMP DP  RH WIND       PRES   REMARKS
LINCOLN        CLOUDY    77  66  68 SE10      30.02S
OMAHA EPPLEY   PTSUNNY   77  64  64 SE8       30.00F
BEATRICE       CLOUDY    72  66  80 S8        30.01R
FALLS CITY     LGT RAIN  76  65  68 SE3       30.02S
NEBRASKA CITY  PTSUNNY   73  68  85 CALM      30.02S
PLATTSMOUTH    CLOUDY    75  66  74 E6        30.01F
$$

NEZ044-045-051>053-067-302000-
OMAHA AREA

CITY           SKY/WX    TMP DP  RH WIND       PRES   REMARKS
OMAHA EPPLEY   PTSUNNY   77  64  64 SE8       30.00F
BLAIR          MOSUNNY   77  66  68 E8        30.01F
FREMONT        MOSUNNY   78  62  58 SE8       30.01F
MILLARD        MOSUNNY   78  65  66 E6        30.00F
OFFUTT AFB     PTSUNNY   78  65  64 SE9       30.00F
PLATTSMOUTH    CLOUDY    75  66  74 E6        30.01F
WAHOO          FAIR      77  65  66 SE7       30.01F
$$



USA.gov is the U.S. government's official web portal to all federal, state and local government web resources and services.